Location: Unspecified
(23.0900°N, 113.1700°E)
Time: 09:02:08
(UTC+00:00)

Daily predictions for brighter satellites

Satellite Brightness Start Highest point End
(mag) Time Altitude Azimuth Time Altitude Azimuth Time Altitude Azimuth
Terra 3.4 12:01:31 12° ESE 12:04:02 18° ENE 12:07:07 10° NNE
SAR-Lupe-1 4.2 12:01:06 10° S 12:04:32 70° W 12:08:00 10° NNW
Cosmos 1833 Rocket 3.7 12:01:13 10° N 12:06:01 28° ENE 12:09:38 15° ESE
SJ-6B 2.9 12:02:57 10° S 12:06:23 64° WSW 12:09:53 10° NNW
ARIANE 6 FM1 Upper Stage 3.1 12:03:02 10° S 12:07:04 40° ESE 12:11:01 10° NE
Cosmos 1263 4.4 12:04:08 10° S 12:08:00 68° E 12:11:13 10° NNE
USA 267 3.5 12:05:13 13° SE 12:11:00 60° NE 12:17:24 10° NNW
SL-08 R/B 4.2 12:11:14 10° NE 12:15:07 27° E 12:17:38 17° SE
Cosmos 1943 Rocket 2.4 12:09:49 10° SSW 12:15:27 77° WNW 12:21:05 10° NNE
Sich 1 2.9 12:11:42 10° N 12:15:58 89° ENE 12:20:12 10° S
Cosmos 1680 Rocket 3.4 12:13:01 10° S 12:18:08 67° ESE 12:23:16 10° NNE
Cosmos 1151 Rocket 3.6 12:14:23 10° SSW 12:18:37 58° W 12:22:51 10° N
ERS-1 Rocket 3.8 12:16:50 18° SE 12:19:43 33° ENE 12:24:08 10° N
Timation 2 Rocket 4.2 12:14:06 10° S 12:19:56 47° ESE 12:26:03 10° NNE
Okean 3 Rocket 3.9 12:29:02 10° NNW 12:33:20 64° W 12:37:30 11° S
USA 59 Rocket 3.6 12:32:10 10° W 12:33:55 12° WNW 12:35:30 10° NW
Cosmos 2278 Rocket 2.5 12:29:35 10° SSW 12:35:13 70° WNW 12:40:51 10° NNE
Meteor 2-11 Rocket 4.4 12:29:36 10° N 12:35:41 86° W 12:41:40 11° S
Cosmos 1656 Rocket 4.5 12:35:52 26° ESE 12:36:32 27° ESE 12:41:05 10° NE
CSL-04 Rocket 3.7 12:32:11 12° S 12:37:07 77° WSW 12:42:22 10° NNW
Cosmos 1500 Rocket 3.4 12:33:01 10° N 12:37:16 70° E 12:39:28 28° SSE
ATLAS 5 CENTAUR R/B 4.3 12:38:42 10° WSW 12:41:22 27° NW 12:47:11 10° NNE
SL-08 R/B 4.5 12:35:58 10° N 12:41:58 59° E 12:45:27 25° SSE
Cosmos 1328 Rocket 3.7 12:40:39 34° SE 12:42:07 49° E 12:46:16 10° NNE
Okean-O 4.4 12:44:17 17° ENE 12:44:17 17° ENE 12:46:48 10° NNE
Cosmos 1340 Rocket 4.5 12:41:02 10° NNW 12:44:12 28° W 12:47:22 10° SSW
Delta 2 Rocket 2.7 12:41:42 10° WSW 12:44:57 76° NNW 12:46:08 36° NE
ATLAS 5 CENTAUR R/B 1.1 12:46:41 10° SW 12:49:44 56° WNW 12:52:34 10° NNE
SWIFT 2.3 12:47:04 10° W 12:49:24 40° SW 12:49:24 40° SW
CSL-04 Debris 4.5 12:46:41 15° S 12:51:06 64° WSW 12:56:28 10° NNW
Aurora 2 Rocket 3.2 12:46:48 10° W 12:54:07 90° SSW 12:56:27 37° ESE
Meteor 1-31 Rocket 3.0 13:00:20 46° SW 13:00:56 54° W 13:04:16 10° NNW
SL-12 R/B(2) 4.1 12:54:09 10° S 13:01:07 52° ESE 13:09:01 10° NE
GPS 2-12 Rocket1 4.1 12:57:11 10° WSW 13:01:01 30° SSW 13:01:01 30° SSW
Okean O Rocket 2.8 13:04:29 28° ENE 13:04:29 28° ENE 13:07:39 10° NNE
Helios 1A Rocket 2.7 13:00:53 10° N 13:03:55 58° WNW 13:03:55 58° WNW
HBTSS-SV1 4.2 13:01:46 10° NW 13:06:08 87° SSW 13:06:27 76° SE
Cosmos 2369 Rocket 4.3 13:11:41 12° ENE 13:11:41 12° ENE 13:12:10 10° NE
Cosmos 1953 2.8 13:07:17 10° N 13:09:52 44° NNE 13:09:52 44° NNE
Cosmos 967 Rocket 4.4 13:04:24 10° SSW 13:10:50 80° ESE 13:17:18 10° NNE
IRAS Rocket 4.1 13:10:30 47° SSE 13:12:11 83° ENE 13:17:49 10° NNW
BREEZE-M DEB (TANK) 4.3 13:14:06 10° NNW 13:14:25 14° NNW 13:14:25 14° NNW
Cosmos 2315 Rocket 3.8 13:16:41 40° S 13:19:05 82° E 13:25:18 10° N
Cosmos 883 Rocket 4.3 13:17:35 39° S 13:20:04 87° E 13:26:11 10° N
Timation 1 Rocket 4.2 13:15:46 10° NNW 13:21:44 86° WSW 13:23:04 57° S
S3M 4.1 13:18:38 24° SSW 13:22:28 70° W 13:28:36 10° N
NOSS 3-1 (C) 2.6 13:22:40 77° WSW 13:22:53 80° WNW 13:27:33 10° NNE
Cosmos 1666 Rocket 4.1 13:21:14 10° N 13:24:29 49° NNE 13:24:29 49° NNE
GP-B 3.5 13:21:46 10° N 13:25:11 53° NNE 13:25:11 53° NNE
ADEOS 3.6 13:28:03 64° SSW 13:28:46 76° WSW 13:33:58 10° NNW
Iridium 4 Rocket 3.7 13:28:21 47° SW 13:29:31 60° W 13:34:11 10° N
CZ-4 R/B 3.6 13:30:15 15° WSW 13:31:27 17° W 13:34:03 10° NW
Terra 3.3 13:40:08 26° WSW 13:41:14 29° W 13:45:18 10° NW
Cosmos 1709 Rocket 3.8 13:35:03 10° N 13:41:25 78° E 13:41:44 76° ESE
Cosmos 1633 Rocket 4.1 13:44:14 10° N 13:47:13 42° NNW 13:47:13 42° NNW
Cosmos 1833 Rocket 4.4 13:45:11 10° NW 13:49:40 25° WSW 13:51:20 22° SW
CZ-4B R/B 4.4 13:52:55 31° WSW 13:53:53 33° W 13:58:39 10° NW
Ariane Rocket 4.4 14:18:40 33° N 14:18:40 33° N 14:21:27 10° N
COSMOS 2455 4.2 14:24:10 31° NNE 14:24:10 31° NNE 14:27:10 10° NNE
Milstar 3 Cent rocket 4.4 14:22:33 10° W 14:23:14 13° W 14:23:14 13° W
Cosmos 2082 Rocket 3.2 14:22:47 10° NNW 14:26:22 41° NNW 14:26:22 41° NNW
Okean O Rocket 4.5 14:41:43 12° WNW 14:41:43 12° WNW 14:42:24 10° WNW
Cosmos 2369 Rocket 3.9 14:53:22 29° NW 14:53:22 29° NW 14:56:51 10° N
CZ-3B R/B 4.4 15:23:34 35° N 15:23:34 35° N 15:31:30 10° NNE
ACS3 Solar Sail 3.8 16:47:31 10° N 16:49:13 20° N 16:49:13 20° N
ATLAS 3B R/B 4.0 17:33:06 36° NNW 17:33:06 36° NNW 17:38:28 10° N
CENTAUR R/B 3.8 17:37:23 10° NNW 17:46:18 56° ENE 17:47:51 51° E
Cosmos 2227 Rocket 3.9 17:58:47 10° N 18:02:12 28° NE 18:02:12 28° NE
Cosmos 1980 Rocket 4.0 18:30:29 22° NNW 18:30:29 22° NNW 18:32:58 10° N
USA 215 3.8 18:31:09 51° NNW 18:31:09 51° NNW 18:35:50 10° NW
Cosmos 2263 Rocket 3.1 18:34:39 10° N 18:39:42 43° ENE 18:39:42 43° ENE
ADEOS Rocket 4.4 18:36:01 10° N 18:38:39 25° NNW 18:38:39 25° NNW
ADEOS II 3.8 18:37:37 10° NE 18:41:40 25° E 18:41:40 25° E
Cosmos 2360 Rocket 3.6 18:52:24 28° ESE 18:52:47 28° ESE 18:57:31 10° NE
NOSS 3-4 (A) 3.9 18:55:42 45° ENE 18:55:42 45° ENE 18:59:46 10° NE
NOSS 3-4 (C) 3.8 18:56:25 46° ENE 18:56:25 46° ENE 19:00:34 10° NE
Delta 198 4.5 18:58:31 68° ENE 18:58:31 68° ENE 19:04:05 10° E
CZ-2D R/B 2.7 18:53:27 10° NNE 18:58:05 54° ENE 18:58:05 54° ENE
Cosmos 2100 Rocket 4.1 18:53:05 10° N 18:58:13 63° NNW 18:58:13 63° NNW
Cosmos 1725 Rocket 4.3 18:57:31 10° N 19:03:44 63° E 19:04:50 54° SE
Cosmos 44 4.0 19:05:39 52° N 19:05:39 52° N 19:09:41 10° NNE
SL-16 R/B 2.3 19:10:14 71° N 19:10:14 71° N 19:15:18 10° NNE
DMSP B5D2-2 4.2 19:13:57 68° E 19:14:10 69° ENE 19:19:24 10° N
Cosmos 1536 Rocket 4.3 19:18:31 50° NNE 19:18:31 50° NNE 19:21:50 10° N
Cosmos 2278 3.5 19:25:06 80° W 19:25:15 81° WNW 19:30:58 10° NNE
Meteor 2-3 Rocket 3.8 19:26:02 61° SSE 19:26:57 75° E 19:32:38 10° N
Delta 7925 Rocket 3.4 19:28:24 66° N 19:28:24 66° N 19:32:49 10° ENE
Resurs 1-4 Rocket 2.3 19:25:06 10° N 19:29:51 54° WNW 19:29:51 54° WNW
Tiangong 0.9 19:35:23 12° N 19:35:23 12° N 19:35:59 10° N
Cosmos 2233 Rocket 4.0 19:30:22 10° N 19:36:41 82° E 19:39:52 32° S
CENTAUR R/B 4.3 19:28:58 10° NW 19:34:48 29° W 19:34:48 29° W
Cosmos 2333 Rocket 2.5 19:38:00 48° WNW 19:38:10 48° WNW 19:43:38 10° N
OAO 1 4.4 19:38:58 69° W 19:39:38 83° NNW 19:45:07 10° ENE
Envisat 4.2 19:35:26 10° NNW 19:38:56 28° NW 19:38:56 28° NW
Cosmos 1802 Rocket 4.1 19:34:15 10° NNW 19:40:28 53° W 19:41:13 51° WSW
H-2A R/B 2.4 19:40:17 10° N 19:44:49 43° WNW 19:44:49 43° WNW
METEOR-M 4.0 19:41:07 10° N 19:46:27 84° WNW 19:47:47 52° SSW
Cosmos 2227 Rocket 4.3 19:43:20 10° NW 19:43:54 12° WNW 19:43:54 12° WNW
H-2A R/B 3.5 19:46:07 18° SE 19:48:38 40° ENE 19:52:19 10° N
ARGOS 3.2 19:43:13 10° NNE 19:48:38 75° ESE 19:50:51 37° S
SEDSat Delta rocket 4.4 19:51:15 30° W 19:54:27 55° NNW 20:00:43 10° ENE
Cosmos 2322 Rocket 2.2 19:53:19 49° WSW 19:54:34 61° WNW 20:00:09 10° N
RESURS DK-1 2.0 19:57:09 78° SW 19:57:23 86° WNW 20:01:20 10° NNE
Cosmos 1892 Rocket 3.7 19:56:08 39° SSE 19:57:35 69° E 20:01:51 10° N
AQUA 4.1 19:53:07 10° NNE 19:57:44 61° ESE 20:00:01 29° S
Okean 1 3.6 19:54:31 10° N 19:57:56 53° E 19:58:59 36° SE
ALOS 3.5 19:54:23 10° NNW 19:57:32 24° WNW 19:57:32 24° WNW
SL-08 RB Rocket 4.4 19:54:46 10° NNE 19:59:06 49° E 20:01:38 22° SSE
FALCON 9 R/B 2.1 20:00:54 27° E 20:00:54 27° E 20:02:08 10° ENE
Cosmos 1743 4.1 20:02:40 19° NNW 20:02:40 19° NNW 20:03:47 10° NNW
Cosmos 1777 Rocket 3.9 19:59:28 40° SSW 20:01:23 87° WNW 20:06:35 10° NNE
Atlas Centaur 2 3.4 20:03:04 19° SSE 20:04:30 22° SE 20:08:47 10° E
SL-4 R/B 2.7 20:10:38 27° SE 20:10:38 27° SE 20:12:11 10° SE
Cosmos 1606 Rocket 3.5 20:13:18 10° N 20:17:44 89° W 20:21:46 12° S
Cosmos 2219 Rocket 2.2 20:17:46 28° SW 20:20:44 66° WNW 20:26:21 10° N
ADEOS II 3.2 20:17:01 10° NNW 20:21:12 25° WNW 20:22:28 23° W
Cosmos 1707 1.9 20:19:24 10° N 20:22:03 70° E 20:23:01 34° SSE
Aureole 3 Rocket 4.2 20:19:56 10° NW 20:21:04 17° NW 20:21:04 17° NW
OAO 1 Rocket 4.5 20:20:35 29° WSW 20:23:18 74° NNW 20:28:34 10° ENE
Cosmos 2263 Rocket 4.1 20:20:14 10° WNW 20:21:15 13° WNW 20:21:15 13° WNW
Delta 2 Rocket 4.4 20:18:11 12° WNW 20:24:59 78° SSW 20:33:44 10° ESE
Cosmos 2219 3.8 20:21:09 10° NW 20:26:14 35° WSW 20:30:00 17° SSW
SL-24 DEB 4.5 20:23:35 10° N 20:27:53 72° WNW 20:30:42 21° SSW
Palapa 6 Rocket 4.0 20:25:24 18° W 20:30:08 66° SSW 20:37:22 10° ESE
COSMOS 2428 4.0 20:27:21 10° S 20:32:32 37° ESE 20:37:42 10° NE
Cosmos 1626 Rocket 4.3 20:32:08 10° S 20:36:24 53° E 20:40:42 10° NNE
Cosmos 2360 Rocket 3.4 20:34:10 19° WSW 20:36:33 26° WNW 20:41:12 10° NNW
Cosmos 1844 Rocket 2.7 20:31:28 10° NNW 20:37:05 90° W 20:42:44 10° SSE
CZ-2D R/B 4.1 20:36:26 10° NW 20:38:03 11° WNW 20:39:20 10° W
PAYLOAD A 4.5 20:35:54 10° NNE 20:41:17 67° ESE 20:46:34 10° S
Delta 198 4.5 20:36:48 10° W 20:43:02 79° N 20:49:17 10° E
Cosmos 2151 3.5 20:44:17 10° S 20:48:16 57° E 20:52:14 10° NNE
GPS 2-15 Rocket1 3.9 20:47:33 17° WSW 20:50:27 32° SSW 20:54:43 10° SE
GPS 2-17 Rocket1 2.9 20:47:44 17° WSW 20:50:49 57° S 20:54:54 10° ESE
USA 234 3.3 20:44:35 10° NE 20:51:07 84° NW 20:57:31 11° SW
Cosmos 2098 Rocket 4.4 20:51:18 10° NNW 20:55:47 31° W 21:00:33 10° SSW
Cosmos 1570 Rocket 3.9 20:55:31 10° NNW 21:00:44 74° WSW 21:05:56 10° S
BREEZE M DEB (TANK) 2.4 21:00:31 15° WSW 21:02:28 55° NW 21:07:55 10° NE
Cosmos 1842 2.5 21:00:13 10° N 21:03:19 83° W 21:06:24 10° S
Meteor 2-6 Rocket 4.5 20:58:59 10° N 21:04:23 73° E 21:09:55 10° SSE
Meteor 2-12 Rocket 4.5 20:58:51 10° SSW 21:04:52 66° W 21:10:56 10° N
Centaur D-1AR AC-39 3.8 20:29:51 10° W 21:08:36 83° S 21:14:00 10° E
Cosmos 2034 Rocket 4.2 21:03:33 10° N 21:09:45 81° E 21:16:01 10° S
H-2A R/B 3.0 21:06:49 10° NNW 21:10:34 31° WNW 21:14:18 10° SW
CZ-2C R/B 3.1 21:10:45 10° N 21:15:23 39° WNW 21:20:06 10° SW
NOSS 0 Rocket 4.4 21:10:07 10° S 21:16:15 66° ESE 21:22:21 10° NNE
Delta 168 3.1 21:14:05 10° WNW 21:17:30 63° N 21:22:05 10° E
SeaSat 1 2.4 21:16:49 10° SSE 21:21:39 66° WSW 21:26:30 10° NNW
SL-16 R/B 2.8 21:17:26 10° S 21:23:18 47° WSW 21:29:12 10° NNW
USA 281 3.6 21:16:52 10° SSE 21:23:22 71° ENE 21:29:54 10° NNW
